Time,TemperatureF,DewpointF,PressureIn,WindDirection,WindDirectionDegrees,WindSpeedMPH,WindSpeedGustMPH,Humidity,HourlyPrecipIn,Conditions,Clouds,dailyrainin,SolarRadiationWatts/m^2,SoftwareType,DateUTC
2013-01-11 00:03:00,33.0,31.0,-100.00,SSE,150,6.0,12.0,93,0.00,,,0.00,0.000000,,2013-01-11 06:03:00,
2013-01-11 00:12:00,33.0,31.0,-100.00,SSE,150,6.0,12.0,93,0.00,,,0.00,0.000000,,2013-01-11 06:12:00,
2013-01-11 00:33:00,33.0,32.0,-100.00,SSE,147,8.0,18.0,95,0.00,,,0.00,0.000000,,2013-01-11 06:33:00,
2013-01-11 00:42:00,33.0,32.0,-100.00,SSE,147,8.0,18.0,95,0.00,,,0.00,0.000000,,2013-01-11 06:42:00,
2013-01-11 00:52:00,33.0,32.0,-100.00,SSE,147,8.0,18.0,95,0.00,,,0.00,0.000000,,2013-01-11 06:52:00,
2013-01-11 01:02:00,33.0,32.0,-100.00,SSE,147,8.0,18.0,95,0.00,,,0.00,0.000000,,2013-01-11 07:02:00,
2013-01-11 01:12:00,33.0,32.0,-100.00,SSE,147,8.0,18.0,95,0.00,,,0.00,0.000000,,2013-01-11 07:12:00,
2013-01-11 01:42:00,33.0,32.0,-100.00,SSE,148,7.0,14.0,97,0.00,,,0.00,0.000000,,2013-01-11 07:42:00,
2013-01-11 01:52:00,33.0,32.0,-100.00,SSE,148,7.0,14.0,97,0.00,,,0.00,0.000000,,2013-01-11 07:52:00,
2013-01-11 02:02:00,33.0,32.0,-100.00,SSE,148,7.0,14.0,97,0.00,,,0.00,0.000000,,2013-01-11 08:02:00,
2013-01-11 02:12:00,33.0,32.0,-100.00,SSE,148,7.0,14.0,97,0.00,,,0.00,0.000000,,2013-01-11 08:12:00,
2013-01-11 02:42:00,33.0,32.0,-100.00,SE,144,6.0,18.0,97,0.00,,,0.00,0.000000,,2013-01-11 08:42:00,
2013-01-11 02:53:00,33.0,32.0,-100.00,SE,144,6.0,18.0,97,0.00,,,0.00,0.000000,,2013-01-11 08:53:00,
2013-01-11 03:02:00,33.0,32.0,-100.00,SE,144,6.0,18.0,97,0.00,,,0.00,0.000000,,2013-01-11 09:02:00,
2013-01-11 03:12:00,33.0,32.0,-100.00,SE,144,6.0,18.0,97,0.00,,,0.00,0.000000,,2013-01-11 09:12:00,
2013-01-11 03:32:00,33.0,32.0,-100.00,SSE,150,7.0,16.0,98,0.00,,,0.00,0.000000,,2013-01-11 09:32:00,
2013-01-11 03:42:00,33.0,32.0,-100.00,SSE,150,7.0,16.0,98,0.00,,,0.00,0.000000,,2013-01-11 09:42:00,
2013-01-11 03:52:00,33.0,32.0,-100.00,SSE,150,7.0,16.0,98,0.00,,,0.00,0.000000,,2013-01-11 09:52:00,
2013-01-11 04:02:00,33.0,32.0,-100.00,SSE,150,7.0,16.0,98,0.00,,,0.00,0.000000,,2013-01-11 10:02:00,
2013-01-11 04:12:00,33.0,32.0,-100.00,SSE,150,7.0,16.0,98,0.00,,,0.00,0.000000,,2013-01-11 10:12:00,
2013-01-11 04:43:00,33.0,32.0,-100.00,SSE,158,5.0,12.0,98,0.00,,,0.00,0.000000,,2013-01-11 10:43:00,
2013-01-11 04:52:00,33.0,32.0,-100.00,SSE,158,5.0,12.0,98,0.00,,,0.00,0.000000,,2013-01-11 10:52:00,
2013-01-11 05:03:00,33.0,32.0,-100.00,SSE,158,5.0,12.0,98,0.00,,,0.00,0.000000,,2013-01-11 11:03:00,
2013-01-11 05:12:00,33.0,32.0,-100.00,SSE,158,5.0,12.0,98,0.00,,,0.00,0.000000,,2013-01-11 11:12:00,
2013-01-11 05:33:00,34.0,34.0,-100.00,SSE,160,4.0,11.0,99,0.00,,,0.00,0.000000,,2013-01-11 11:33:00,
2013-01-11 05:43:00,34.0,34.0,-100.00,SSE,160,4.0,11.0,99,0.00,,,0.00,0.000000,,2013-01-11 11:43:00,
2013-01-11 05:53:00,34.0,34.0,-100.00,SSE,160,4.0,11.0,99,0.00,,,0.00,0.000000,,2013-01-11 11:53:00,
2013-01-11 06:03:00,34.0,34.0,-100.00,SSE,160,4.0,11.0,99,0.00,,,0.00,0.000000,,2013-01-11 12:03:00,
2013-01-11 06:12:00,34.0,34.0,-100.00,SSE,160,4.0,11.0,99,0.00,,,0.00,0.000000,,2013-01-11 12:12:00,
2013-01-11 06:13:00,33.0,33.0,-100.00,SE,141,3.0,8.0,99,0.00,,,-99.99,0.000000,,2013-01-11 12:13:00,
2013-01-11 06:33:00,33.0,33.0,-100.00,SE,141,3.0,8.0,99,0.00,,,-99.99,0.000000,,2013-01-11 12:33:00,
2013-01-11 06:43:00,33.0,33.0,-100.00,SE,141,3.0,8.0,99,0.00,,,-99.99,0.000000,,2013-01-11 12:43:00,
2013-01-11 06:53:00,33.0,33.0,-100.00,SE,141,3.0,8.0,99,0.00,,,-99.99,0.000000,,2013-01-11 12:53:00,
2013-01-11 07:03:00,33.0,33.0,-100.00,SE,141,3.0,8.0,99,0.00,,,-99.99,0.000000,,2013-01-11 13:03:00,
2013-01-11 07:43:00,33.0,33.0,-100.00,South,172,1.0,6.0,99,0.00,,,-99.99,0.000000,,2013-01-11 13:43:00,
2013-01-11 07:53:00,33.0,33.0,-100.00,South,172,1.0,6.0,99,0.00,,,-99.99,0.000000,,2013-01-11 13:53:00,
2013-01-11 08:03:00,33.0,33.0,-100.00,South,172,1.0,6.0,99,0.00,,,-99.99,0.000000,,2013-01-11 14:03:00,
2013-01-11 08:12:00,33.0,33.0,-100.00,South,172,1.0,6.0,99,0.00,,,-99.99,0.000000,,2013-01-11 14:12:00,
2013-01-11 08:13:00,34.0,34.0,-100.00,SE,137,2.0,6.0,99,0.00,,,0.00,5.000000,,2013-01-11 14:13:00,
2013-01-11 08:33:00,34.0,34.0,-100.00,SE,137,2.0,6.0,99,0.00,,,0.00,5.000000,,2013-01-11 14:33:00,
2013-01-11 08:43:00,34.0,34.0,-100.00,SE,137,2.0,6.0,99,0.00,,,0.00,5.000000,,2013-01-11 14:43:00,
2013-01-11 08:53:00,34.0,34.0,-100.00,SE,137,2.0,6.0,99,0.00,,,0.00,5.000000,,2013-01-11 14:53:00,
2013-01-11 09:03:00,34.0,34.0,-100.00,SE,137,2.0,6.0,99,0.00,,,0.00,5.000000,,2013-01-11 15:03:00,
2013-01-11 09:43:00,35.0,35.0,-100.00,SSE,163,4.0,8.0,99,0.00,,,0.00,38.000000,,2013-01-11 15:43:00,
2013-01-11 09:53:00,35.0,35.0,-100.00,SSE,163,4.0,8.0,99,0.00,,,0.00,38.000000,,2013-01-11 15:53:00,
2013-01-11 10:03:00,35.0,35.0,-100.00,SSE,163,4.0,8.0,99,0.00,,,0.00,38.000000,,2013-01-11 16:03:00,
2013-01-11 10:12:00,35.0,35.0,-100.00,SSE,163,4.0,8.0,99,0.00,,,0.00,38.000000,,2013-01-11 16:12:00,
2013-01-11 10:43:00,36.0,36.0,-100.00,SSW,198,3.0,7.0,99,0.00,,,0.00,54.000000,,2013-01-11 16:43:00,
2013-01-11 10:53:00,36.0,36.0,-100.00,SSW,198,3.0,7.0,99,0.00,,,0.00,54.000000,,2013-01-11 16:53:00,
2013-01-11 11:03:00,36.0,36.0,-100.00,SSW,198,3.0,7.0,99,0.00,,,0.00,54.000000,,2013-01-11 17:03:00,
2013-01-11 11:12:00,36.0,36.0,-100.00,SSW,198,3.0,7.0,99,0.00,,,0.00,54.000000,,2013-01-11 17:12:00,
2013-01-11 11:43:00,36.0,36.0,-100.00,SSE,160,3.0,6.0,99,0.00,,,0.00,67.000000,,2013-01-11 17:43:00,
2013-01-11 11:53:00,36.0,36.0,-100.00,SSE,160,3.0,6.0,99,0.00,,,0.00,67.000000,,2013-01-11 17:53:00,
2013-01-11 12:03:00,36.0,36.0,-100.00,SSE,160,3.0,6.0,99,0.00,,,0.00,67.000000,,2013-01-11 18:03:00,
2013-01-11 12:12:00,36.0,36.0,-100.00,SSE,160,3.0,6.0,99,0.00,,,0.00,67.000000,,2013-01-11 18:12:00,
2013-01-11 12:43:00,37.0,36.0,-100.00,SW,226,4.0,8.0,98,-99.99,,,-99.99,137.000000,,2013-01-11 18:43:00,
2013-01-11 12:53:00,37.0,36.0,-100.00,SW,226,4.0,8.0,98,-99.99,,,-99.99,137.000000,,2013-01-11 18:53:00,
2013-01-11 13:02:00,37.0,36.0,-100.00,SW,226,4.0,8.0,98,-99.99,,,-99.99,137.000000,,2013-01-11 19:02:00,
2013-01-11 13:12:00,37.0,36.0,-100.00,SW,226,4.0,8.0,98,-99.99,,,-99.99,137.000000,,2013-01-11 19:12:00,
2013-01-11 13:43:00,37.0,36.0,-100.00,West,272,1.0,7.0,98,0.00,,,-99.99,91.000000,,2013-01-11 19:43:00,
2013-01-11 13:53:00,37.0,36.0,-100.00,West,272,1.0,7.0,98,0.00,,,-99.99,91.000000,,2013-01-11 19:53:00,
2013-01-11 14:03:00,37.0,36.0,-100.00,West,272,1.0,7.0,98,0.00,,,-99.99,91.000000,,2013-01-11 20:03:00,
2013-01-11 14:12:00,37.0,36.0,-100.00,West,272,1.0,7.0,98,0.00,,,-99.99,91.000000,,2013-01-11 20:12:00,
2013-01-11 14:33:00,38.0,37.0,-100.00,SW,214,2.0,5.0,97,0.00,,,-99.99,81.000000,,2013-01-11 20:33:00,
2013-01-11 14:43:00,38.0,37.0,-100.00,SW,214,2.0,5.0,97,0.00,,,-99.99,81.000000,,2013-01-11 20:43:00,
2013-01-11 14:53:00,38.0,37.0,-100.00,SW,214,2.0,5.0,97,0.00,,,-99.99,81.000000,,2013-01-11 20:53:00,
2013-01-11 15:03:00,38.0,37.0,-100.00,SW,214,2.0,5.0,97,0.00,,,-99.99,81.000000,,2013-01-11 21:03:00,
2013-01-11 15:12:00,38.0,37.0,-100.00,SW,214,2.0,5.0,97,0.00,,,-99.99,81.000000,,2013-01-11 21:12:00,
2013-01-11 15:33:00,38.0,37.0,-100.00,SW,214,0.0,5.0,98,0.00,,,-99.99,51.000000,,2013-01-11 21:33:00,
2013-01-11 15:43:00,38.0,37.0,-100.00,SW,214,0.0,5.0,98,0.00,,,-99.99,51.000000,,2013-01-11 21:43:00,
2013-01-11 15:53:00,38.0,37.0,-100.00,SW,214,0.0,5.0,98,0.00,,,-99.99,51.000000,,2013-01-11 21:53:00,
2013-01-11 16:02:00,38.0,37.0,-100.00,SW,214,0.0,5.0,98,0.00,,,-99.99,51.000000,,2013-01-11 22:02:00,
2013-01-11 16:12:00,38.0,37.0,-100.00,SW,214,0.0,5.0,98,0.00,,,-99.99,51.000000,,2013-01-11 22:12:00,
2013-01-11 16:13:00,38.0,37.0,-100.00,ESE,123,0.0,2.0,98,0.00,,,-99.99,31.000000,,2013-01-11 22:13:00,
2013-01-11 16:33:00,38.0,37.0,-100.00,ESE,123,0.0,2.0,98,0.00,,,-99.99,31.000000,,2013-01-11 22:33:00,
2013-01-11 16:42:00,38.0,37.0,-100.00,ESE,123,0.0,2.0,98,0.00,,,-99.99,31.000000,,2013-01-11 22:42:00,
2013-01-11 16:53:00,38.0,37.0,-100.00,ESE,123,0.0,2.0,98,0.00,,,-99.99,31.000000,,2013-01-11 22:53:00,
2013-01-11 17:02:00,38.0,37.0,-100.00,ESE,123,0.0,2.0,98,0.00,,,-99.99,31.000000,,2013-01-11 23:02:00,
2013-01-11 17:33:00,37.0,37.0,-100.00,SSW,195,1.0,4.0,99,0.00,,,-99.99,2.000000,,2013-01-11 23:33:00,
2013-01-11 17:43:00,37.0,37.0,-100.00,SSW,195,1.0,4.0,99,0.00,,,-99.99,2.000000,,2013-01-11 23:43:00,
2013-01-11 17:53:00,37.0,37.0,-100.00,SSW,195,1.0,4.0,99,0.00,,,-99.99,2.000000,,2013-01-11 23:53:00,
2013-01-11 18:02:00,37.0,37.0,-100.00,SSW,195,1.0,4.0,99,0.00,,,-99.99,2.000000,,2013-01-12 00:02:00,
2013-01-11 18:12:00,37.0,37.0,-100.00,SSW,195,1.0,4.0,99,0.00,,,-99.99,2.000000,,2013-01-12 00:12:00,
2013-01-11 18:33:00,37.0,37.0,-100.00,SSE,152,3.0,6.0,100,0.00,,,-99.99,0.000000,,2013-01-12 00:33:00,
2013-01-11 18:43:00,37.0,37.0,-100.00,SSE,152,3.0,6.0,100,0.00,,,-99.99,0.000000,,2013-01-12 00:43:00,
2013-01-11 18:53:00,37.0,37.0,-100.00,SSE,152,3.0,6.0,100,0.00,,,-99.99,0.000000,,2013-01-12 00:53:00,
2013-01-11 19:02:00,37.0,37.0,-100.00,SSE,152,3.0,6.0,100,0.00,,,-99.99,0.000000,,2013-01-12 01:02:00,
2013-01-11 19:12:00,37.0,37.0,-100.00,SSE,152,3.0,6.0,100,0.00,,,-99.99,0.000000,,2013-01-12 01:12:00,
2013-01-11 19:33:00,37.0,37.0,-100.00,South,170,4.0,7.0,100,0.00,,,-99.99,0.000000,,2013-01-12 01:33:00,
2013-01-11 19:43:00,37.0,37.0,-100.00,South,170,4.0,7.0,100,0.00,,,-99.99,0.000000,,2013-01-12 01:43:00,
2013-01-11 19:52:00,37.0,37.0,-100.00,South,170,4.0,7.0,100,0.00,,,-99.99,0.000000,,2013-01-12 01:52:00,
2013-01-11 20:02:00,37.0,37.0,-100.00,South,170,4.0,7.0,100,0.00,,,-99.99,0.000000,,2013-01-12 02:02:00,
2013-01-11 20:12:00,37.0,37.0,-100.00,South,170,4.0,7.0,100,0.00,,,-99.99,0.000000,,2013-01-12 02:12:00,
2013-01-11 20:33:00,37.0,37.0,-100.00,South,175,4.0,10.0,100,0.00,,,-99.99,0.000000,,2013-01-12 02:33:00,
2013-01-11 20:43:00,37.0,37.0,-100.00,South,175,4.0,10.0,100,0.00,,,-99.99,0.000000,,2013-01-12 02:43:00,
2013-01-11 20:53:00,37.0,37.0,-100.00,South,175,4.0,10.0,100,0.00,,,-99.99,0.000000,,2013-01-12 02:53:00,
2013-01-11 21:02:00,37.0,37.0,-100.00,South,175,4.0,10.0,100,0.00,,,-99.99,0.000000,,2013-01-12 03:02:00,
2013-01-11 21:12:00,37.0,37.0,-100.00,South,175,4.0,10.0,100,0.00,,,-99.99,0.000000,,2013-01-12 03:12:00,
2013-01-11 21:33:00,37.0,37.0,-100.00,South,172,4.0,9.0,100,0.00,,,-99.99,0.000000,,2013-01-12 03:33:00,
2013-01-11 21:43:00,37.0,37.0,-100.00,South,172,4.0,9.0,100,0.00,,,-99.99,0.000000,,2013-01-12 03:43:00,
2013-01-11 21:53:00,37.0,37.0,-100.00,South,172,4.0,9.0,100,0.00,,,-99.99,0.000000,,2013-01-12 03:53:00,
2013-01-11 22:02:00,37.0,37.0,-100.00,South,172,4.0,9.0,100,0.00,,,-99.99,0.000000,,2013-01-12 04:02:00,
2013-01-11 22:12:00,37.0,37.0,-100.00,South,172,4.0,9.0,100,0.00,,,-99.99,0.000000,,2013-01-12 04:12:00,
2013-01-11 22:33:00,37.0,37.0,-100.00,SSE,159,6.0,13.0,100,0.00,,,-99.99,0.000000,,2013-01-12 04:33:00,
2013-01-11 22:43:00,37.0,37.0,-100.00,SSE,159,6.0,13.0,100,0.00,,,-99.99,0.000000,,2013-01-12 04:43:00,
2013-01-11 22:52:00,37.0,37.0,-100.00,SSE,159,6.0,13.0,100,0.00,,,-99.99,0.000000,,2013-01-12 04:52:00,
2013-01-11 23:03:00,37.0,37.0,-100.00,SSE,159,6.0,13.0,100,0.00,,,-99.99,0.000000,,2013-01-12 05:03:00,
2013-01-11 23:12:00,37.0,37.0,-100.00,SSE,159,6.0,13.0,100,0.00,,,-99.99,0.000000,,2013-01-12 05:12:00,
2013-01-11 23:32:00,38.0,38.0,-100.00,SSE,167,6.0,11.0,100,0.00,,,-99.99,0.000000,,2013-01-12 05:32:00,
2013-01-11 23:42:00,38.0,38.0,-100.00,SSE,167,6.0,11.0,100,0.00,,,-99.99,0.000000,,2013-01-12 05:42:00,
2013-01-11 23:52:00,38.0,38.0,-100.00,SSE,167,6.0,11.0,100,0.00,,,-99.99,0.000000,,2013-01-12 05:52:00,